Location: Amsterdam
(30.7274°N, 84.4357°W)
Time: 03:51:27
(UTC+00:00)

Courier 1B Rocket - Pass Details

Date: 12 February 2026
Orbit: 920 x 1201 km, 28.2° (Epoch: 7 March)

Event Time Altitude Azimuth Distance (km) Brightness Sun altitude
Rises 02:25:49 0° 236° (SW) 3,606 8.5 -39.8°
Reaches altitude 10° 02:28:30 10° 230° (SW) 2,692 7.7 -40.4°
Enters shadow 02:29:57 17° 224° (SW) 2,231 7.1 -40.7°
Maximum altitude 02:34:37 43° 160° (SSE) 1,374 - -41.7°
Drops below altitude 10° 02:41:10 10° 91° (E) 2,881 - -43.1°
Sets 02:44:08 0° 85° (E) 3,884 - -43.7°
